Location: Washington
(38.8950°N, 77.0370°W)
Time: 11:45:58
(UTC-04:00)

Tiangong 1 - Visible Passes

Search period start: 30 June 2016 00:00
Search period end: 10 July 2016 00:00
Orbit: 369 x 386 km, 42.8° (Epoch: 30 June)

Date Brightness Start Highest point End Pass type
(mag) Time Alt. Az. Time Alt. Az. Time Alt. Az.
30 Jun 0.9 21:11:11 10° WSW 21:14:18 73° SSE 21:17:23 10° ENE visible
30 Jun 2.3 22:48:03 10° WNW 22:51:01 40° N 22:52:17 26° NE visible
01 Jul 1.9 21:46:04 10° W 21:49:07 50° NNW 21:52:08 10° ENE visible
01 Jul 2.7 23:23:03 10° WNW 23:25:23 34° NNW 23:25:23 34° NNW visible
02 Jul 2.4 22:21:06 10° WNW 22:24:02 37° N 22:26:16 15° ENE visible
02 Jul 4.0 23:57:49 10° WNW 23:58:18 14° WNW 23:58:18 14° WNW visible
03 Jul 2.3 21:19:05 10° W 21:22:04 41° N 21:25:03 10° ENE visible
03 Jul 1.9 22:55:58 10° WNW 22:58:58 45° N 22:59:05 45° NNE visible
04 Jul 2.3 21:54:02 10° WNW 21:57:00 38° N 21:59:49 11° ENE visible
04 Jul 3.4 23:30:39 10° WNW 23:31:51 21° WNW 23:31:51 21° WNW visible
05 Jul 1.4 22:28:45 10° WNW 22:31:50 59° NNE 22:32:33 44° ENE visible
06 Jul 2.0 21:26:50 10° WNW 21:29:51 43° N 21:32:50 10° E visible
06 Jul 2.6 23:03:26 10° WNW 23:05:16 30° W 23:05:16 30° W visible
07 Jul 1.0 22:01:28 10° WNW 22:04:36 83° NNE 22:05:55 31° ESE visible
08 Jul 2.2 22:36:15 10° W 22:38:38 31° SW 22:38:38 31° SW visible
09 Jul 1.1 21:34:08 10° WNW 21:37:13 64° SSW 21:39:19 18° SE visible
